Location: Poprad
(49.0500°N, 20.3000°E)
Time: 12:43:03
(UTC+01:00)

BlueWalker 3 - Pass Details

Date: 05 December 2023
Orbit: 485 x 500 km, 53.2° (Epoch: 27 February)

Event Time Altitude Azimuth Distance (km) Brightness Sun altitude
Exits shadow 05:33:40 14° 227° (SW) 1,463 4.0 -16.0°
Drops below altitude 10° 05:35:36 10° 197° (SSW) 1,687 4.6 -15.7°
Sets 05:38:36 0° 171° (S) 2,558 5.9 -15.2°
